Terug naar catalogus

STARLINK-5035

ActiefCommunicatieVLEO
NORAD 53897·PAYLOAD·🇺🇸 United States

Gelanceerd Sep 24, 2022 vanaf Cape Canaveral Space Force Station

Loading…

Volgende Passages (komende 24 uur)

TLE

VersSource: CelesTrak SupGP

Epoch: Sep 15, 2026, 02:16 UTC

1 53897C 22119M   26258.09493056  .00247290  00000+0  56098-2 0  2587
2 53897  53.2150 139.6403 0001240  81.7706 188.4847 15.42362242    14

Volg STARLINK-5035 in realtime met AllMySat

Download on the App Store